| time (UTC) | temp F | wind direction | speed knots | gust knots | rain 1hr in | rain 24hr in | rain mn in | humidity % | barometer mb |
| 20260505230133 | 70 | 159 | 4.3 | 10.4 | 0.00 | 0.00 | 0.00 | 73 | 1016.1 |
| 20260505225233 | 70 | 164 | 4.3 | 8.7 | 0.00 | 0.00 | 0.00 | 73 | 1016.2 |
| 20260505224333 | 70 | 164 | 4.3 | 9.6 | 0.00 | 0.00 | 0.00 | 73 | 1016.2 |
| 20260505223433 | 70 | 272 | 3.5 | 10.4 | 0.00 | 0.00 | 0.00 | 73 | 1016.2 |
| 20260505222533 | 71 | 218 | 5.2 | 12.2 | 0.00 | 0.00 | 0.00 | 72 | 1016.1 |
| 20260505221633 | 71 | 212 | 4.3 | 9.6 | 0.00 | 0.00 | 0.00 | 73 | 1016.1 |
| 20260505215833 | 71 | 174 | 5.2 | 13.0 | 0.00 | 0.00 | 0.00 | 70 | 1016.3 |
| 20260505214933 | 72 | 259 | 5.2 | 13.0 | 0.00 | 0.00 | 0.00 | 69 | 1016.2 |
| 20260505213133 | 72 | 188 | 5.2 | 11.3 | 0.00 | 0.00 | 0.00 | 68 | 1016.1 |
| 20260505212233 | 72 | 230 | 4.3 | 13.0 | 0.00 | 0.00 | 0.00 | 69 | 1016.2 |
| 20260505211333 | 72 | 242 | 5.2 | 13.9 | 0.00 | 0.00 | 0.00 | 70 | 1016.3 |
| 20260505210433 | 72 | 211 | 6.1 | 12.2 | 0.00 | 0.00 | 0.00 | 70 | 1016.2 |
| 20260505205533 | 73 | 193 | 6.1 | 13.9 | 0.00 | 0.00 | 0.00 | 69 | 1016.4 |
| 20260505203733 | 74 | 261 | 6.1 | 13.0 | 0.00 | 0.00 | 0.00 | 68 | 1016.4 |
| 20260505202833 | 74 | 266 | 5.2 | 12.2 | 0.00 | 0.00 | 0.00 | 68 | 1016.1 |
| 20260505201933 | 73 | 144 | 4.3 | 9.6 | 0.00 | 0.00 | 0.00 | 67 | 1016.3 |
| 20260505201033 | 74 | 224 | 5.2 | 12.2 | 0.00 | 0.00 | 0.00 | 67 | 1016.3 |
| 20260505200133 | 74 | 226 | 4.3 | 8.7 | 0.00 | 0.00 | 0.00 | 66 | 1016.2 |
| 20260505195233 | 74 | 209 | 5.2 | 12.2 | 0.00 | 0.00 | 0.00 | 65 | 1016.3 |
| 20260505194333 | 74 | 146 | 7.0 | 14.8 | 0.00 | 0.00 | 0.00 | 65 | 1016.5 |
| 20260505193433 | 75 | 232 | 6.1 | 14.8 | 0.00 | 0.00 | 0.00 | 65 | 1016.7 |
| 20260505192533 | 75 | 128 | 6.1 | 13.0 | 0.00 | 0.00 | 0.00 | 64 | 1016.9 |
| 20260505191633 | 74 | 164 | 5.2 | 11.3 | 0.00 | 0.00 | 0.00 | 64 | 1017.1 |
| 20260505190733 | 75 | 196 | 5.2 | 13.9 | 0.00 | 0.00 | 0.00 | 63 | 1017.1 |
| 20260505185833 | 75 | 240 | 6.1 | 14.8 | 0.00 | 0.00 | 0.00 | 65 | 1017.2 |
| 20260505184933 | 75 | 236 | 5.2 | 9.6 | 0.00 | 0.00 | 0.00 | 65 | 1017.1 |
| 20260505184033 | 75 | 193 | 4.3 | 13.9 | 0.00 | 0.00 | 0.00 | 66 | 1017.1 |
| 20260505183133 | 75 | 241 | 4.3 | 8.7 | 0.00 | 0.00 | 0.00 | 65 | 1017.0 |
| 20260505182233 | 76 | 205 | 3.5 | 7.8 | 0.00 | 0.00 | 0.00 | 64 | 1017.1 |
| 20260505181333 | 76 | 169 | 5.2 | 12.2 | 0.00 | 0.00 | 0.00 | 64 | 1017.1 |
| 20260505180433 | 76 | 200 | 4.3 | 11.3 | 0.00 | 0.00 | 0.00 | 64 | 1017.5 |
| 20260505175533 | 77 | 197 | 6.1 | 12.2 | 0.00 | 0.00 | 0.00 | 63 | 1017.5 |
| 20260505174633 | 77 | 228 | 5.2 | 13.0 | 0.00 | 0.00 | 0.00 | 62 | 1017.5 |
| 20260505173733 | 77 | 231 | 4.3 | 12.2 | 0.00 | 0.00 | 0.00 | 63 | 1017.5 |
| 20260505172833 | 77 | 247 | 6.1 | 13.9 | 0.00 | 0.00 | 0.00 | 63 | 1017.6 |
| 20260505171933 | 76 | 247 | 4.3 | 9.6 | 0.00 | 0.00 | 0.00 | 63 | 1017.6 |
| 20260505171033 | 76 | 232 | 4.3 | 11.3 | 0.00 | 0.00 | 0.00 | 62 | 1017.9 |
| 20260505170133 | 76 | 130 | 3.5 | 11.3 | 0.00 | 0.00 | 0.00 | 63 | 1017.8 |
| 20260505165233 | 77 | 178 | 5.2 | 12.2 | 0.00 | 0.00 | 0.00 | 62 | 1017.9 |
| 20260505164333 | 77 | 221 | 5.2 | 13.9 | 0.00 | 0.00 | 0.00 | 62 | 1017.9 |
| 20260505163433 | 76 | 178 | 2.6 | 9.6 | 0.00 | 0.00 | 0.00 | 62 | 1018.0 |
| 20260505162533 | 77 | 107 | 4.3 | 11.3 | 0.00 | 0.00 | 0.00 | 62 | 1018.1 |
| 20260505160733 | 76 | 121 | 4.3 | 11.3 | 0.00 | 0.00 | 0.00 | 58 | 1018.2 |
| 20260505153133 | 79 | 224 | 4.3 | 10.4 | 0.00 | 0.00 | 0.00 | 61 | 1018.1 |
| 20260505152233 | 78 | 196 | 4.3 | 8.7 | 0.00 | 0.00 | 0.00 | 63 | 1018.2 |
| 20260505150433 | 80 | 218 | 3.5 | 11.3 | 0.00 | 0.00 | 0.00 | 61 | 1018.1 |
| 20260505140133 | 78 | 210 | 4.3 | 10.4 | 0.00 | 0.00 | 0.00 | 61 | 1017.9 |
| 20260505124933 | 76 | 229 | 1.7 | 3.5 | 0.00 | 0.00 | 0.00 | 69 | 1017.5 |
| 20260505124034 | 75 | 252 | 0.9 | 2.6 | 0.00 | 0.00 | 0.00 | 73 | 1017.7 |
| 20260505123133 | 74 | 257 | 0.9 | 2.6 | 0.00 | 0.00 | 0.00 | 74 | 1017.7 |
| 20260505122233 | 73 | 211 | 0.0 | 1.7 | 0.00 | 0.00 | 0.00 | 76 | 1017.7 |
| 20260505121333 | 71 | 209 | 0.0 | 0.0 | 0.00 | 0.00 | 0.00 | 77 | 1017.5 |
| 20260505120433 | 69 | 209 | 0.0 | 0.0 | 0.00 | 0.00 | 0.00 | 78 | 1017.5 |
| 20260505115533 | 68 | 209 | 0.0 | 0.0 | 0.00 | 0.00 | 0.00 | 79 | 1017.5 |
| 20260505114633 | 66 | 209 | 0.0 | 0.0 | 0.00 | 0.00 | 0.00 | 81 | 1017.5 |
| 20260505113733 | 64 | 209 | 0.0 | 0.0 | 0.00 | 0.00 | 0.00 | 85 | 1017.4 |
| 20260505112833 | 62 | 209 | 0.0 | 0.0 | 0.00 | 0.00 | 0.00 | 87 | 1017.2 |
| 20260505111933 | 60 | 209 | 0.0 | 0.0 | 0.00 | 0.00 | 0.00 | 90 | 1017.1 |
| 20260505110133 | 56 | 209 | 0.0 | 0.0 | 0.00 | 0.00 | 0.00 | 90 | 1016.8 |
| 20260505101633 | 56 | 209 | 0.0 | 0.0 | 0.00 | 0.00 | 0.00 | 89 | 1016.3 |
| 20260505100733 | 56 | 209 | 0.0 | 0.0 | 0.00 | 0.00 | 0.00 | 89 | 1016.3 |
| 20260505094933 | 56 | 209 | 0.0 | 0.0 | 0.00 | 0.00 | 0.00 | 89 | 1016.1 |
| 20260505093133 | 56 | 209 | 0.0 | 0.0 | 0.00 | 0.00 | 0.00 | 89 | 1016.0 |
| 20260505092233 | 57 | 209 | 0.0 | 0.0 | 0.00 | 0.00 | 0.00 | 88 | 1016.0 |
| 20260505091333 | 57 | 209 | 0.0 | 0.0 | 0.00 | 0.00 | 0.00 | 88 | 1016.0 |
| 20260505090433 | 57 | 209 | 0.0 | 0.0 | 0.00 | 0.00 | 0.00 | 88 | 1015.9 |
| 20260505085533 | 57 | 209 | 0.0 | 0.0 | 0.00 | 0.00 | 0.00 | 88 | 1015.7 |
| 20260505084633 | 57 | 209 | 0.0 | 0.0 | 0.00 | 0.00 | 0.00 | 88 | 1015.7 |
| 20260505082833 | 58 | 209 | 0.0 | 0.0 | 0.00 | 0.00 | 0.00 | 88 | 1015.7 |
| 20260505081933 | 58 | 209 | 0.0 | 0.0 | 0.00 | 0.00 | 0.00 | 88 | 1015.7 |
| 20260505081033 | 58 | 209 | 0.0 | 0.0 | 0.00 | 0.00 | 0.00 | 88 | 1015.7 |
| 20260505080133 | 58 | 209 | 0.0 | 0.0 | 0.00 | 0.00 | 0.00 | 87 | 1015.7 |
| 20260505075233 | 59 | 209 | 0.0 | 0.0 | 0.00 | 0.00 | 0.00 | 87 | 1015.7 |
| 20260505074333 | 59 | 209 | 0.0 | 0.0 | 0.00 | 0.00 | 0.00 | 86 | 1015.7 |
| 20260505073433 | 59 | 209 | 0.0 | 0.0 | 0.00 | 0.00 | 0.00 | 86 | 1015.6 |
| 20260505072533 | 59 | 209 | 0.0 | 0.9 | 0.00 | 0.00 | 0.00 | 86 | 1015.5 |
| 20260505071633 | 59 | 209 | 0.0 | 0.9 | 0.00 | 0.00 | 0.00 | 85 | 1015.6 |
| 20260505070733 | 60 | 209 | 0.0 | 0.0 | 0.00 | 0.00 | 0.00 | 85 | 1015.6 |
| 20260505065833 | 60 | 209 | 0.0 | 0.9 | 0.00 | 0.00 | 0.00 | 85 | 1015.7 |
| 20260505064933 | 60 | 209 | 0.0 | 0.9 | 0.00 | 0.00 | 0.00 | 84 | 1015.7 |
| 20260505064033 | 61 | 209 | 0.0 | 0.9 | 0.00 | 0.00 | 0.00 | 83 | 1015.8 |
| 20260505061334 | 62 | 209 | 0.0 | 0.9 | 0.00 | 0.00 | 0.00 | 81 | 1016.0 |
| 20260505060433 | 63 | 209 | 0.0 | 2.6 | 0.00 | 0.00 | 0.00 | 80 | 1016.1 |
| 20260505055533 | 63 | 209 | 0.9 | 2.6 | 0.00 | 0.00 | 0.00 | 80 | 1016.2 |
| 20260505054633 | 63 | 209 | 0.9 | 2.6 | 0.00 | 0.00 | 0.00 | 80 | 1016.4 |
| 20260505051933 | 64 | 197 | 1.7 | 3.5 | 0.00 | 0.00 | 0.00 | 80 | 1016.6 |
| 20260505051033 | 64 | 224 | 0.9 | 3.5 | 0.00 | 0.00 | 0.00 | 80 | 1016.6 |
| 20260505050133 | 64 | 215 | 1.7 | 3.5 | 0.00 | 0.00 | 0.00 | 80 | 1016.6 |
| 20260505041633 | 64 | 227 | 1.7 | 3.5 | 0.00 | 0.00 | 0.00 | 78 | 1016.5 |
| 20260505040733 | 64 | 235 | 1.7 | 2.6 | 0.00 | 0.00 | 0.00 | 77 | 1016.5 |
| 20260505034934 | 64 | 236 | 1.7 | 4.3 | 0.00 | 0.00 | 0.00 | 76 | 1016.7 |
| 20260505033133 | 64 | 234 | 1.7 | 4.3 | 0.00 | 0.00 | 0.00 | 74 | 1016.6 |
| 20260505032233 | 65 | 233 | 1.7 | 5.2 | 0.00 | 0.00 | 0.00 | 74 | 1016.7 |
| 20260505031333 | 65 | 209 | 1.7 | 6.1 | 0.00 | 0.00 | 0.00 | 73 | 1016.7 |
| 20260505030433 | 65 | 232 | 2.6 | 4.3 | 0.00 | 0.00 | 0.00 | 73 | 1016.7 |
| 20260505024633 | 65 | 225 | 2.6 | 6.1 | 0.00 | 0.00 | 0.00 | 73 | 1016.6 |
| 20260505023733 | 65 | 216 | 2.6 | 6.1 | 0.00 | 0.00 | 0.00 | 73 | 1016.7 |
| 20260505022833 | 65 | 209 | 3.5 | 8.7 | 0.00 | 0.00 | 0.00 | 73 | 1016.7 |
| 20260505021933 | 65 | 245 | 2.6 | 6.1 | 0.00 | 0.00 | 0.00 | 73 | 1016.8 |
| 20260505021033 | 65 | 214 | 2.6 | 7.0 | 0.00 | 0.00 | 0.00 | 73 | 1016.7 |
| 20260505015233 | 66 | 228 | 3.5 | 7.8 | 0.00 | 0.00 | 0.00 | 73 | 1016.7 |
| 20260505014333 | 66 | 223 | 3.5 | 7.0 | 0.00 | 0.00 | 0.00 | 72 | 1016.5 |
| 20260505012533 | 66 | 237 | 3.5 | 7.0 | 0.00 | 0.00 | 0.00 | 71 | 1016.3 |
| 20260505011633 | 66 | 230 | 3.5 | 7.0 | 0.00 | 0.00 | 0.00 | 71 | 1016.2 |
| 20260505010733 | 66 | 218 | 3.5 | 8.7 | 0.00 | 0.00 | 0.00 | 71 | 1016.1 |
| 20260505005833 | 66 | 203 | 4.3 | 9.6 | 0.00 | 0.00 | 0.00 | 71 | 1016.1 |
| 20260505004033 | 66 | 241 | 3.5 | 7.0 | 0.00 | 0.00 | 0.00 | 70 | 1015.9 |
| 20260505003133 | 66 | 241 | 3.5 | 7.8 | 0.00 | 0.00 | 0.00 | 69 | 1015.8 |
| 20260505002233 | 66 | 213 | 4.3 | 9.6 | 0.00 | 0.00 | 0.00 | 70 | 1015.8 |
| 20260505001333 | 66 | 226 | 4.3 | 8.7 | 0.00 | 0.00 | 0.00 | 69 | 1015.8 |
| 20260505000433 | 67 | 236 | 4.3 | 11.3 | 0.00 | 0.00 | 0.00 | 68 | 1015.8 |
| 20260504235534 | 67 | 251 | 4.3 | 13.0 | 0.00 | 0.00 | 0.00 | 67 | 1015.7 |
| 20260504234633 | 68 | 222 | 4.3 | 11.3 | 0.00 | 0.00 | 0.00 | 66 | 1015.7 |
| 20260504233733 | 68 | 230 | 4.3 | 12.2 | 0.00 | 0.00 | 0.00 | 65 | 1015.6 |
| 20260504232833 | 70 | 204 | 5.2 | 11.3 | 0.00 | 0.00 | 0.00 | 62 | 1015.6 |
| 20260504231933 | 73 | 185 | 5.2 | 13.0 | 0.00 | 0.00 | 0.00 | 59 | 1015.6 |
| 20260504231033 | 71 | 255 | 6.1 | 13.0 | 0.00 | 0.00 | 0.00 | 62 | 1015.7 |